| time (UTC) | temp F | wind direction | speed MPH | gust MPH | rain 1hr in | rain 24hr in | rain mn in | humidity % | barometer mb |
| 20260509051513 | 61 | 181 | 0.0 | 4.0 | 0.00 | 0.00 | 0.00 | 39 | 1018.1 |
| 20260509050033 | 61 | 157 | 2.0 | 7.0 | 0.00 | 0.00 | 0.00 | 40 | 1018.0 |
| 20260509044517 | 61 | 241 | 0.0 | 0.0 | 0.00 | 0.00 | 0.00 | 40 | 1017.7 |
| 20260509043032 | 62 | 161 | 0.0 | 3.0 | 0.00 | 0.00 | 0.00 | 40 | 1017.7 |
| 20260509041522 | 63 | 213 | 0.0 | 5.0 | 0.00 | 0.00 | 0.00 | 39 | 1017.5 |
| 20260509034513 | 66 | 195 | 2.0 | 4.0 | 0.00 | 0.00 | 0.00 | 33 | 1016.8 |
| 20260509033029 | 68 | 166 | 0.0 | 4.0 | 0.00 | 0.00 | 0.00 | 25 | 1016.7 |
| 20260509031527 | 69 | 178 | 0.0 | 2.0 | 0.00 | 0.00 | 0.00 | 24 | 1016.3 |
| 20260509030028 | 70 | 24 | 0.0 | 2.0 | 0.00 | 0.00 | 0.00 | 22 | 1016.0 |
| 20260509024518 | 71 | 305 | 0.0 | 3.0 | 0.00 | 0.00 | 0.00 | 23 | 1015.8 |
| 20260509023024 | 72 | 331 | 0.0 | 2.0 | 0.00 | 0.00 | 0.00 | 25 | 1015.6 |
| 20260509021519 | 72 | 316 | 0.0 | 7.0 | 0.00 | 0.00 | 0.00 | 30 | 1015.4 |
| 20260509020022 | 72 | 332 | 0.0 | 10.0 | 0.00 | 0.00 | 0.00 | 32 | 1015.3 |
| 20260509014527 | 73 | 171 | 2.0 | 11.0 | 0.00 | 0.00 | 0.00 | 30 | 1014.8 |
| 20260509013028 | 74 | 182 | 3.0 | 15.0 | 0.00 | 0.00 | 0.00 | 29 | 1014.7 |
| 20260509011524 | 74 | 213 | 4.0 | 13.0 | 0.00 | 0.00 | 0.00 | 28 | 1014.7 |
| 20260509010013 | 75 | 211 | 4.0 | 17.0 | 0.00 | 0.00 | 0.00 | 27 | 1014.7 |
| 20260509004505 | 76 | 352 | 4.0 | 15.0 | 0.00 | 0.00 | 0.00 | 26 | 1014.5 |
| 20260509003004 | 76 | 199 | 3.0 | 9.0 | 0.00 | 0.00 | 0.00 | 24 | 1014.4 |
| 20260509001504 | 76 | 169 | 7.0 | 16.0 | 0.00 | 0.00 | 0.00 | 24 | 1014.3 |
| 20260509000006 | 76 | 195 | 9.0 | 21.0 | 0.00 | 0.00 | 0.00 | 24 | 1014.3 |
| 20260508234507 | 76 | 164 | 7.0 | 19.0 | 0.00 | 0.00 | 0.00 | 24 | 1014.3 |
| 20260508231508 | 76 | 191 | 9.0 | 16.0 | 0.00 | 0.00 | 0.00 | 21 | 1014.6 |
| 20260508230005 | 77 | 167 | 4.0 | 11.0 | 0.00 | 0.00 | 0.00 | 22 | 1014.7 |
| 20260508224520 | 77 | 134 | 2.0 | 11.0 | 0.00 | 0.00 | 0.00 | 23 | 1014.7 |
| 20260508223011 | 76 | 186 | 2.0 | 11.0 | 0.00 | 0.00 | 0.00 | 22 | 1014.7 |
| 20260508221516 | 76 | 239 | 2.0 | 10.0 | 0.00 | 0.00 | 0.00 | 24 | 1014.8 |
| 20260508220009 | 76 | 189 | 6.0 | 17.0 | 0.00 | 0.00 | 0.00 | 22 | 1014.7 |
| 20260508213007 | 75 | 220 | 4.0 | 18.0 | 0.00 | 0.00 | 0.00 | 24 | 1015.0 |
| 20260508211523 | 75 | 350 | 4.0 | 12.0 | 0.00 | 0.00 | 0.00 | 24 | 1015.0 |
| 20260508210017 | 74 | 333 | 5.0 | 14.0 | 0.00 | 0.00 | 0.00 | 25 | 1015.0 |
| 20260508204522 | 73 | 261 | 3.0 | 14.0 | 0.00 | 0.00 | 0.00 | 29 | 1015.1 |
| 20260508203007 | 71 | 303 | 2.0 | 19.0 | 0.00 | 0.00 | 0.00 | 28 | 1015.0 |
| 20260508201515 | 71 | 178 | 4.0 | 12.0 | 0.00 | 0.00 | 0.00 | 26 | 1015.0 |
| 20260508200017 | 72 | 18 | 5.0 | 14.0 | 0.00 | 0.00 | 0.00 | 25 | 1015.1 |
| 20260508194520 | 73 | 65 | 6.0 | 16.0 | 0.00 | 0.00 | 0.00 | 24 | 1015.0 |
| 20260508193025 | 73 | 149 | 3.0 | 15.0 | 0.00 | 0.00 | 0.00 | 28 | 1014.9 |
| 20260508191508 | 72 | 149 | 1.0 | 13.0 | 0.00 | 0.00 | 0.00 | 29 | 1014.9 |
| 20260508190017 | 72 | 159 | 3.0 | 11.0 | 0.00 | 0.00 | 0.00 | 31 | 1015.1 |
| 20260508184513 | 72 | 205 | 2.0 | 8.0 | 0.00 | 0.00 | 0.00 | 35 | 1015.3 |
| 20260508183020 | 70 | 123 | 5.0 | 14.0 | 0.00 | 0.00 | 0.00 | 31 | 1015.4 |
| 20260508181524 | 70 | 192 | 6.0 | 12.0 | 0.00 | 0.00 | 0.00 | 35 | 1015.4 |
| 20260508180007 | 67 | 270 | 4.0 | 12.0 | 0.00 | 0.00 | 0.00 | 43 | 1015.5 |
| 20260508174514 | 65 | 150 | 4.0 | 12.0 | 0.00 | 0.00 | 0.00 | 47 | 1015.8 |
| 20260508173026 | 63 | 126 | 4.0 | 12.0 | 0.00 | 0.00 | 0.00 | 51 | 1015.7 |
| 20260508171531 | 63 | 153 | 6.0 | 15.0 | 0.00 | 0.00 | 0.00 | 50 | 1015.7 |
| 20260508170010 | 64 | 196 | 6.0 | 14.0 | 0.00 | 0.00 | 0.00 | 50 | 1015.5 |
| 20260508164529 | 63 | 176 | 4.0 | 15.0 | 0.00 | 0.00 | 0.00 | 50 | 1015.4 |
| 20260508163026 | 62 | 187 | 7.0 | 17.0 | 0.00 | 0.00 | 0.00 | 50 | 1015.2 |
| 20260508161531 | 61 | 135 | 6.0 | 14.0 | 0.00 | 0.00 | 0.00 | 51 | 1015.3 |
| 20260508160004 | 61 | 140 | 7.0 | 14.0 | 0.00 | 0.00 | 0.00 | 51 | 1015.0 |
| 20260508154503 | 60 | 171 | 7.0 | 16.0 | 0.00 | 0.00 | 0.00 | 52 | 1015.0 |
| 20260508153003 | 60 | 176 | 8.0 | 14.0 | 0.00 | 0.00 | 0.00 | 51 | 1014.8 |
| 20260508150018 | 58 | 184 | 6.0 | 15.0 | 0.00 | 0.00 | 0.00 | 53 | 1014.7 |
| 20260508143018 | 57 | 213 | 9.0 | 17.0 | 0.00 | 0.00 | 0.00 | 53 | 1014.2 |
| 20260508141502 | 57 | 214 | 8.0 | 17.0 | 0.00 | 0.00 | 0.00 | 53 | 1014.2 |
| 20260508134503 | 57 | 161 | 8.0 | 17.0 | 0.00 | 0.00 | 0.00 | 53 | 1013.9 |
| 20260508133011 | 56 | 220 | 7.0 | 21.0 | 0.00 | 0.00 | 0.00 | 53 | 1013.7 |
| 20260508130005 | 56 | 167 | 8.0 | 18.0 | 0.00 | 0.00 | 0.00 | 49 | 1013.6 |
| 20260508124512 | 56 | 197 | 8.0 | 16.0 | 0.00 | 0.00 | 0.00 | 49 | 1013.6 |
| 20260508123007 | 56 | 173 | 7.0 | 18.0 | 0.00 | 0.00 | 0.00 | 49 | 1013.6 |
| 20260508121516 | 55 | 232 | 8.0 | 15.0 | 0.00 | 0.00 | 0.00 | 50 | 1013.4 |
| 20260508120023 | 55 | 174 | 7.0 | 16.0 | 0.00 | 0.00 | 0.00 | 53 | 1013.6 |
| 20260508114521 | 55 | 155 | 8.0 | 17.0 | 0.00 | 0.00 | 0.00 | 47 | 1013.4 |
| 20260508111515 | 56 | 209 | 7.0 | 20.0 | 0.00 | 0.00 | 0.00 | 47 | 1013.3 |
| 20260508110006 | 56 | 168 | 7.0 | 19.0 | 0.00 | 0.00 | 0.00 | 46 | 1013.3 |
| 20260508103008 | 56 | 202 | 7.0 | 15.0 | 0.00 | 0.00 | 0.00 | 43 | 1013.2 |
| 20260508101516 | 57 | 234 | 7.0 | 15.0 | 0.00 | 0.00 | 0.00 | 42 | 1013.1 |
| 20260508100033 | 57 | 173 | 6.0 | 18.0 | 0.00 | 0.00 | 0.00 | 41 | 1013.0 |
| 20260508094519 | 57 | 226 | 8.0 | 16.0 | 0.00 | 0.00 | 0.00 | 40 | 1013.0 |
| 20260508093015 | 57 | 208 | 7.0 | 19.0 | 0.00 | 0.00 | 0.00 | 39 | 1013.0 |
| 20260508091510 | 57 | 223 | 6.0 | 13.0 | 0.00 | 0.00 | 0.00 | 35 | 1013.1 |
| 20260508090018 | 58 | 105 | 6.0 | 14.0 | 0.00 | 0.00 | 0.00 | 32 | 1013.1 |
| 20260508084519 | 58 | 183 | 6.0 | 13.0 | 0.00 | 0.00 | 0.00 | 30 | 1013.1 |
| 20260508083030 | 59 | 139 | 4.0 | 13.0 | 0.00 | 0.00 | 0.00 | 29 | 1013.4 |
| 20260508081519 | 59 | 171 | 4.0 | 16.0 | 0.00 | 0.00 | 0.00 | 27 | 1013.5 |
| 20260508080019 | 59 | 128 | 1.0 | 8.0 | 0.00 | 0.00 | 0.00 | 26 | 1013.5 |
| 20260508074519 | 60 | 294 | 1.0 | 4.0 | 0.00 | 0.00 | 0.00 | 25 | 1013.5 |
| 20260508073022 | 62 | 302 | 0.0 | 4.0 | 0.00 | 0.00 | 0.00 | 26 | 1013.3 |
| 20260508071524 | 63 | 317 | 0.0 | 14.0 | 0.00 | 0.00 | 0.00 | 23 | 1013.0 |
| 20260508070003 | 63 | 168 | 7.0 | 15.0 | 0.00 | 0.00 | 0.00 | 23 | 1012.5 |
| 20260508064511 | 63 | 123 | 7.0 | 13.0 | 0.00 | 0.00 | 0.00 | 24 | 1012.5 |
| 20260508063004 | 64 | 145 | 6.0 | 13.0 | 0.00 | 0.00 | 0.00 | 24 | 1012.5 |
| 20260508061505 | 64 | 155 | 4.0 | 16.0 | 0.00 | 0.00 | 0.00 | 25 | 1012.6 |
| 20260508060004 | 65 | 65 | 4.0 | 11.0 | 0.00 | 0.00 | 0.00 | 26 | 1012.8 |
| 20260508054505 | 65 | 198 | 6.0 | 12.0 | 0.00 | 0.00 | 0.00 | 26 | 1012.8 |
| 20260508053003 | 65 | 211 | 6.0 | 16.0 | 0.00 | 0.00 | 0.00 | 27 | 1012.8 |